Regional Weather Roundup
Issued by NWS

Home | Current Version | Previous Version | Text Only | Print | Product List | Glossary On
Versions: 1 2 3 4 5 6 7 8 9 10 11 12 13 14 15 16 17 18 19 20 21 22 23 24 25 26
000
ASUS45 KBOI 271210
RWRID

IDAHO REGIONAL WEATHER ROUNDUP
NATIONAL WEATHER SERVICE BOISE ID
600 AM MDT FRI MAY 27 2016

NOTE: "FAIR" INDICATES FEW OR NO CLOUDS BELOW 12000 FEET
WITH NO SIGNIFICANT WEATHER AND/OR OBSTRUCTIONS TO VISIBILITY

IDZ012-014-271300-
SOUTHWEST IDAHO


CITY           SKY/WX    TMP DP  RH WIND       PRES   REMARKS
BOISE          MOCLDY    50  38  63 NW9       29.96R
CALDWELL       PTCLDY    50  38  63 W15       29.97R
MOUNTAIN HOME  PTCLDY    53  44  70 NW10      29.94R
$$

IDZ016-017-271300-
SOUTHCENTRAL IDAHO


CITY           SKY/WX    TMP DP  RH WIND       PRES   REMARKS
BURLEY         CLEAR     48  40  73 SW12      29.93R
JEROME         CLEAR     47  39  74 S7        29.94S
TWIN FALLS     CLEAR     48  38  68 S9        29.95R
$$

IDZ019>023-271300-
SOUTHEAST IDAHO


CITY           SKY/WX    TMP DP  RH WIND       PRES   REMARKS
IDAHO FALLS    CLEAR     41  37  86 SW8       29.94R
POCATELLO      CLEAR     45  38  76 SW6       29.94F
REXBURG        CLEAR     43  40  89 CALM      29.93F
$$

IDZ006-010-011-018-031-032-271300-
CENTRAL IDAHO MOUNTAINS


CITY           SKY/WX    TMP DP  RH WIND       PRES   REMARKS
MCCALL         PTCLDY    36  34  92 CALM      29.94S
HAILEY         PTCLDY    39  36  87 NW9       29.97S WCI  33
STANLEY          N/A     35  31  85 VRB6      30.01R WCI  30
SALMON         CLEAR     45  37  76 S5        29.91S
CHALLIS        MOCLDY    45  37  73 CALM      29.94R
$$

IDZ002-004-006-007-026-271300-
NORTHERN IDAHO


CITY           SKY/WX    TMP DP  RH WIND       PRES   REMARKS
LEWISTON       CLOUDY    53  39  59 W3        29.99R
LOWELL           N/A     52  49  89 CALM      29.99R
COEUR D`ALENE  CLOUDY    46  39  76 S9        29.94R
MULLAN PASS    CLOUDY    35  33  92 VRB3      29.95S
$$




USA.gov is the U.S. government's official web portal to all federal, state and local government web resources and services.